Location: Chena
(64.8152°N, 147.9227°W)
Time: 08:21:13
(UTC+00:00)

N. Korean satellite - Pass Details

Date: 30 January 2021
Orbit: 451 x 502 km, 97.2° (Epoch: 08 March)

Event Time Altitude Azimuth Distance (km) Brightness Sun altitude
Rises 03:45:34 0° 218° (SW) 2,562 11.1 -13.9°
Reaches altitude 10° 03:48:33 10° 246° (WSW) 1,674 10.6 -14.2°
Maximum altitude 03:50:24 13° 277° (W) 1,465 10.1 -14.4°
Drops below altitude 10° 03:52:15 10° 308° (NW) 1,665 9.9 -14.6°
Sets 03:55:13 0° 336° (NNW) 2,537 10.4 -14.9°
